[[{"header":{"parameterUnit":"m.s-1","parameterCategory":1,"la1":30.2991,"la2":30.254,"lo1":-89.0895,"lo2":-89.0444,"dy":0.0017,"dx":0.0017,"nx":28,"ny":28,"refTime":"2023-08-31T09:00:00:Z","depth":0,"parameterNumber":2,"parameterNumberName":"U-component_of_WINDS"},"data":[0,0,0,0,0,0,0,0,0,0,0,0,0,0,0,0,0,0,0,0,0,0,0,0,0,0,0,0,0,0,0,0,0,0,0,0,0,0,0,0,0,0,0,0,0,0,0,0,0,0,0,0,0,0,0,0,0,0,-0.7861,-0.786,0,-0.7751,-0.775,-0.7749,-0.7692,-0.7692,-0.7692,-0.7692,-0.7576,-0.7573,-0.757,0,0,0,0,0,0,0,0,0,0,0,0,0,-0.8017,-0.8015,-0.7861,-0.786,-0.7859,-0.7752,-0.775,-0.7749,-0.7692,-0.7692,-0.7692,-0.7692,-0.7577,-0.7573,-0.7569,0,0,0,0,0,0,0,0,0,0,0,0,0,-0.7933,-0.8014,-0.7862,-0.7818,-0.7813,-0.7752,-0.775,-0.7748,-0.7692,-0.7692,-0.7692,-0.7692,-0.7578,-0.7573,-0.7569,-0.7542,0,0,-0.7555,-0.7553,0,0,0,0,0,0,0,0,-0.7937,-0.7927,-0.7826,-0.7821,-0.7815,-0.7736,-0.7762,-0.7679,-0.7692,-0.7738,-0.7692,-0.7692,-0.7629,-0.762,-0.7599,-0.7536,-0.7531,-0.7554,-0.7552,-0.755,-0.7548,0,0,0,0,0,0,0,-0.7943,-0.7931,-0.7818,-0.7824,-0.7818,-0.7802,-0.779,-0.7746,-0.7685,-0.7734,-0.773,-0.7718,-0.7626,-0.7604,-0.7596,-0.753,-0.7554,-0.755,-0.7548,-0.7546,-0.7437,-0.7437,0,0,0,0,0,0,-0.7957,-0.7936,-0.7821,-0.7814,-0.7877,-0.7799,-0.7786,-0.7761,-0.7685,-0.7674,-0.7718,-0.7715,-0.7612,-0.7601,-0.7592,-0.7554,-0.755,-0.7545,-0.7543,-0.7437,-0.7437,-0.7437,0,0,0,0,0,0,-0.796,-0.7947,-0.7826,-0.7874,-0.7858,-0.7797,-0.7769,-0.7759,-0.7737,-0.7673,-0.7661,-0.7707,-0.7611,-0.7598,-0.7554,-0.7549,-0.7543,-0.7539,-0.7437,-0.7437,-0.7437,-0.7479,0,0,0,0,0,0,-0.7965,-0.7949,-0.7939,-0.7874,-0.7855,-0.7792,-0.7769,-0.7757,-0.773,-0.7726,-0.766,-0.7649,-0.761,-0.7562,-0.755,-0.7543,-0.7535,-0.7437,-0.7437,-0.7437,-0.7478,-0.7481,-0.7483,0,0,0,0,0,-0.7971,-0.7955,-0.7939,-0.7926,-0.7842,-0.7792,-0.7781,-0.7738,-0.773,-0.7719,-0.7677,-0.7651,-0.7552,-0.7558,-0.7544,-0.7535,-0.7437,-0.7437,-0.7437,-0.7477,-0.748,-0.7483,0,0,0,0,0,0,-0.802,-0.7946,-0.7927,-0.7891,-0.7848,-0.7783,-0.7767,-0.7742,-0.77,-0.7698,-0.7645,-0.763,-0.7591,-0.7559,-0.7567,-0.7504,-0.7492,-0.7489,-0.7527,-0.7529,-0.7532,-0.754,-0.7532,0,0,0,0,0,-0.8027,-0.7994,-0.793,-0.7903,-0.7883,-0.7829,-0.7805,-0.7776,-0.7729,-0.7711,-0.7666,-0.762,-0.7578,-0.7552,-0.751,-0.7473,-0.7457,-0.746,-0.7462,-0.7465,-0.7462,-0.7438,-0.7439,-0.7436,-0.7436,-0.7436,0,0,-0.804,-0.7995,-0.7978,-0.7912,-0.7876,-0.7841,-0.7814,-0.7779,-0.7752,-0.7704,-0.7661,-0.7626,-0.7571,-0.7531,-0.751,-0.7502,-0.746,-0.7464,-0.7466,-0.7463,-0.7438,-0.7439,-0.7439,-0.7435,-0.7435,-0.7435,0,0,-0.8046,-0.801,-0.7983,-0.7947,-0.7893,-0.7856,-0.785,-0.7788,-0.7763,-0.7719,-0.7682,-0.7648,-0.7578,-0.754,-0.7512,-0.7502,-0.7475,-0.7489,-0.7501,-0.7479,-0.7479,-0.7479,-0.7474,-0.7473,-0.7488,-0.7488,-0.7488,0,-0.8069,-0.8017,-0.7972,-0.7938,-0.791,-0.7867,-0.7838,-0.7805,-0.7739,-0.7719,-0.7711,-0.7621,-0.7581,-0.753,-0.7528,-0.7507,-0.7496,-0.7497,-0.7483,-0.7482,-0.7482,-0.7476,-0.7475,-0.749,-0.7489,-0.7489,-0.7489,0,-0.8047,-0.8011,-0.7995,-0.7934,-0.7903,-0.7873,-0.7822,-0.7796,-0.7768,-0.7732,-0.7686,-0.7637,-0.7584,-0.7569,-0.7542,-0.7513,-0.751,-0.7493,-0.748,-0.7485,-0.7479,-0.7477,-0.7493,-0.7492,-0.7491,-0.7491,0,0,-0.8082,-0.7996,-0.7991,-0.7961,-0.7897,-0.7868,-0.7833,-0.7782,-0.7761,-0.7716,-0.7685,-0.7626,-0.761,-0.7577,-0.7545,-0.7525,-0.7519,-0.751,-0.7508,-0.7513,-0.7483,-0.7496,-0.7494,-0.7501,-0.7501,-0.75,-0.7487,0,-0.8079,-0.8017,-0.7976,-0.793,-0.7895,-0.7852,-0.7822,-0.7778,-0.7744,-0.7707,-0.7668,-0.7626,-0.7609,-0.7589,-0.7567,-0.7524,-0.7512,-0.7525,-0.747,-0.7469,-0.7485,-0.7491,-0.7505,-0.7495,-0.7485,-0.7484,-0.7484,0,-0.8067,-0.8024,-0.7976,-0.7914,-0.7898,-0.7872,-0.7821,-0.7787,-0.7736,-0.7711,-0.7675,-0.7642,-0.7602,-0.7592,-0.7535,-0.7545,-0.7519,-0.7495,-0.7493,-0.7486,-0.7477,-0.7484,-0.7491,-0.749,-0.748,-0.748,-0.7481,0,-0.8096,-0.8027,-0.7988,-0.7965,-0.7892,-0.7874,-0.7843,-0.7792,-0.7763,-0.7718,-0.7698,-0.7648,-0.7621,-0.7583,-0.7536,-0.7533,-0.7483,-0.747,-0.7461,-0.7462,-0.7452,-0.7453,-0.7455,-0.7437,-0.7437,-0.7437,-0.7437,0,-0.8097,-0.8068,-0.8,-0.7977,-0.7943,-0.7894,-0.7861,-0.7825,-0.778,-0.7747,-0.7707,-0.7676,-0.7617,-0.7579,-0.7542,-0.75,-0.7488,-0.7466,-0.7456,-0.7469,-0.7472,-0.7452,-0.7451,-0.7437,-0.7437,-0.7437,-0.7437,0,-0.8124,-0.8078,-0.8033,-0.7967,-0.795,-0.7928,-0.7871,-0.7845,-0.7807,-0.7766,-0.7754,-0.7694,-0.7647,-0.7597,-0.7533,-0.7508,-0.7467,-0.7454,-0.7485,-0.7479,-0.7473,-0.7474,-0.7461,-0.7457,-0.7443,-0.7443,-0.7443,0,-0.8127,-0.8105,-0.8037,-0.8012,-0.7982,-0.7944,-0.7914,-0.7864,-0.7835,-0.7774,-0.7755,-0.7705,-0.7663,-0.7589,-0.7539,-0.7489,-0.7474,-0.7473,-0.7466,-0.7479,-0.7473,-0.7475,-0.7471,-0.7475,-0.7475,-0.7476,-0.7476,0,-0.8138,-0.8116,-0.8076,-0.8027,-0.7994,-0.7953,-0.791,-0.7892,-0.7833,-0.7802,-0.7754,-0.7721,-0.7655,-0.7605,-0.7549,-0.7514,-0.7485,-0.7479,-0.7474,-0.7486,-0.7505,-0.7494,-0.749,-0.7479,-0.7479,-0.7479,-0.7478,-0.7478,-0.8153,-0.813,-0.8078,-0.8034,-0.7997,-0.7958,-0.793,-0.7889,-0.7849,-0.7792,-0.7764,-0.7716,-0.7663,-0.7584,-0.755,-0.751,-0.7502,-0.7495,-0.7493,-0.7492,-0.7495,-0.7512,-0.75,-0.75,-0.75,-0.75,-0.7499,0,-0.816,-0.8125,-0.8085,-0.8027,-0.7992,-0.7968,-0.7919,-0.7891,-0.7849,-0.7803,-0.7762,-0.7705,-0.7657,-0.7603,-0.755,-0.7528,-0.7513,-0.7516,-0.7517,-0.7509,-0.7506,-0.7515,-0.7529,-0.7529,-0.7529,-0.7529,-0.7529,-0.7529,-0.816,-0.812,-0.8091,-0.8031,-0.7995,-0.7949,-0.7922,-0.7885,-0.7848,-0.7787,-0.7747,-0.7712,-0.7662,-0.7605,-0.7558,-0.7543,-0.7525,-0.7532,-0.7513,-0.7512,-0.7509,-0.7507,-0.7516,-0.7529,-0.7529,-0.7519,-0.7519,-0.7519]},{"header":{"parameterUnit":"m.s-1","parameterCategory":1,"la1":30.2991,"la2":30.254,"lo1":-89.0895,"lo2":-89.0444,"dy":0.0017,"dx":0.0017,"nx":28,"ny":28,"refTime":"2023-08-31T09:00:00:Z","depth":0,"parameterNumber":3,"parameterNumberName":"V-component_of_WINDS"},"data":[0,0,0,0,0,0,0,0,0,0,0,0,0,0,0,0,0,0,0,0,0,0,0,0,0,0,0,0,0,0,0,0,0,0,0,0,0,0,0,0,0,0,0,0,0,0,0,0,0,0,0,0,0,0,0,0,0,0,1.9122,1.9123,0,1.9258,1.926,1.9261,1.928,1.9279,1.9277,1.9276,1.9415,1.942,1.9425,0,0,0,0,0,0,0,0,0,0,0,0,0,1.8874,1.8879,1.9121,1.9123,1.9125,1.9258,1.926,1.9262,1.928,1.9279,1.9277,1.9276,1.9414,1.942,1.9426,0,0,0,0,0,0,0,0,0,0,0,0,0,1.8993,1.888,1.9121,1.915,1.9154,1.9258,1.926,1.9262,1.9281,1.9279,1.9277,1.9275,1.9412,1.9419,1.9426,1.951,0,0,1.9449,1.9452,0,0,0,0,0,0,0,0,1.8987,1.9002,1.9144,1.9148,1.9153,1.925,1.9224,1.9345,1.9281,1.9233,1.9276,1.9274,1.9362,1.9373,1.9403,1.9517,1.9523,1.9449,1.9454,1.9457,1.9459,0,0,0,0,0,0,0,1.8978,1.8997,1.9175,1.9146,1.9152,1.9156,1.917,1.9247,1.9306,1.9237,1.9238,1.9254,1.9364,1.9396,1.9406,1.9525,1.9449,1.9456,1.946,1.9463,1.9711,1.9713,0,0,0,0,0,0,1.8965,1.899,1.9171,1.918,1.9063,1.9162,1.9178,1.9221,1.9306,1.9317,1.9256,1.9255,1.9384,1.9398,1.9411,1.9513,1.9457,1.9464,1.9468,1.9709,1.9712,1.9714,0,0,0,0,0,0,1.896,1.8981,1.9166,1.9085,1.9109,1.9168,1.9216,1.9225,1.9257,1.932,1.9331,1.9278,1.9383,1.9401,1.9485,1.9519,1.9467,1.9474,1.9706,1.971,1.9713,1.9719,0,0,0,0,0,0,1.8952,1.8979,1.9012,1.9086,1.9113,1.9237,1.9218,1.9229,1.9269,1.9269,1.9343,1.9354,1.9383,1.9474,1.9492,1.9528,1.948,1.9704,1.9708,1.9712,1.9716,1.9722,1.9727,0,0,0,0,0,1.8944,1.9009,1.9014,1.9035,1.9156,1.9239,1.9255,1.9288,1.9272,1.9305,1.9345,1.9351,1.9512,1.9482,1.9503,1.9541,1.9702,1.9707,1.9711,1.9713,1.9721,1.9727,0,0,0,0,0,0,1.8938,1.9019,1.9025,1.9116,1.9171,1.9242,1.9285,1.9295,1.9355,1.9352,1.939,1.9407,1.9488,1.9523,1.9489,1.9626,1.9605,1.9615,1.96,1.9607,1.9613,1.9602,1.9486,0,0,0,0,0,1.8947,1.9008,1.9076,1.915,1.9177,1.9226,1.9264,1.9284,1.9342,1.9365,1.9412,1.9467,1.953,1.9571,1.9632,1.9721,1.9737,1.9758,1.9763,1.9767,1.9775,1.9822,1.9832,1.973,1.973,1.973,0,0,1.8967,1.9019,1.9055,1.915,1.9194,1.9256,1.9246,1.9312,1.9358,1.9375,1.9457,1.9493,1.9557,1.9643,1.9684,1.9675,1.9806,1.9774,1.9777,1.9782,1.9828,1.9838,1.9847,1.9733,1.9733,1.9732,0,0,1.9034,1.9081,1.9146,1.9191,1.9258,1.929,1.9306,1.9376,1.94,1.9483,1.9496,1.9551,1.9659,1.9704,1.9741,1.9823,1.983,1.9842,1.9871,1.9917,1.9925,1.9932,1.996,1.9969,1.9849,1.9849,1.9849,0,1.905,1.9145,1.9179,1.9244,1.9284,1.9302,1.9368,1.941,1.9494,1.9521,1.951,1.9644,1.9689,1.9785,1.9805,1.9835,1.9852,1.9833,1.9921,1.9929,1.9936,1.9963,1.9973,1.985,1.985,1.985,1.985,0,1.916,1.9225,1.927,1.935,1.9396,1.9461,1.9503,1.9545,1.9561,1.9594,1.9677,1.9731,1.9802,1.9827,1.9844,1.9925,1.9917,1.9913,1.9893,1.9946,1.9972,1.9982,1.9851,1.9851,1.9851,1.985,0,0,1.9229,1.9325,1.9341,1.9377,1.9451,1.9502,1.9567,1.9637,1.9671,1.9728,1.9783,1.9873,1.9869,1.9911,1.9933,1.9973,2.0033,1.9964,1.9966,1.9974,2.0123,2.0125,2.0136,2.0038,2.004,2.0042,2.0117,0,1.9304,1.9421,1.9453,1.9552,1.9611,1.9628,1.9685,1.9736,1.9768,1.9823,1.9858,1.9921,1.9912,1.9937,1.9978,2.0017,2.0063,2.0012,2.0088,2.009,2.007,2.015,2.0153,2.0221,2.0128,2.013,2.0131,0,1.9408,1.9466,1.9571,1.9636,1.9662,1.9712,1.9778,1.983,1.9888,1.9908,1.9954,1.9971,2.0039,2.0015,2.0108,2.0073,2.0106,2.0129,2.0133,2.014,2.0113,2.0159,2.0244,2.0254,2.0147,2.0146,2.0145,0,1.9445,1.955,1.9625,1.9655,1.9734,1.9768,1.9803,1.9859,1.9898,1.9955,1.9981,2.0045,2.008,2.0129,2.0163,2.0143,2.0252,2.0232,2.027,2.0269,2.0291,2.0289,2.0382,2.0314,2.0314,2.0314,2.0314,0,1.9525,1.9588,1.9643,1.9689,1.976,1.9795,1.9863,1.9898,1.9947,2.0,2.0019,2.0068,2.011,2.0164,2.0191,2.0263,2.0279,2.0296,2.0302,2.0294,2.0292,2.0316,2.0311,2.0317,2.0316,2.0316,2.0315,0,1.9579,1.9618,1.9702,1.9768,1.9786,1.9835,1.9892,1.9937,1.9969,2.0036,2.0053,2.0103,2.0168,2.0207,2.0289,2.0307,2.0385,2.039,2.0366,2.0368,2.0403,2.0399,2.0514,2.053,2.0452,2.0453,2.0454,0,1.9627,1.9676,1.9747,1.9784,1.9818,1.9877,1.9917,1.9952,1.9993,2.0061,2.0098,2.0164,2.0218,2.032,2.0364,2.0426,2.0432,2.0468,2.0442,2.0431,2.0431,2.0427,2.0431,2.0472,2.0473,2.0473,2.0474,0,1.9708,1.9724,1.9781,1.9844,1.9891,1.9943,1.9994,2.0023,2.0067,2.0111,2.0177,2.0219,2.0302,2.0367,2.0432,2.0467,2.0477,2.0482,2.0494,2.0485,2.0468,2.0476,2.0377,2.0479,2.0478,2.0478,2.0478,2.0478,1.976,1.9803,1.9859,1.9921,1.9963,2.001,2.0055,2.0092,2.0148,2.0218,2.0236,2.0305,2.0359,2.0449,2.0484,2.0538,2.0532,2.055,2.0554,2.0558,2.0558,2.046,2.0551,2.055,2.055,2.055,2.055,0,1.984,1.9877,1.9933,2.0004,2.0052,2.0058,2.0114,2.0154,2.0214,2.0265,2.0317,2.0392,2.0454,2.0502,2.0566,2.0599,2.0606,2.0615,2.0612,2.062,2.056,2.0543,2.0608,2.0608,2.0608,2.0608,2.0608,2.0608,1.9888,1.996,1.9983,2.0076,2.0113,2.018,2.0211,2.0254,2.0294,2.0377,2.0429,2.0459,2.0508,2.0575,2.0632,2.0644,2.0666,2.0674,2.0687,2.063,2.0624,2.0618,2.0602,2.0679,2.0679,2.0742,2.0743,2.0743]}]]